Date,TemperatureHighF,TemperatureAvgF,TemperatureLowF,DewpointHighF,DewpointAvgF,DewpointLowF,HumidityHigh,HumidityAvg,HumidityLow,PressureMaxIn,PressureMinIn,WindSpeedMaxMPH,WindSpeedAvgMPH,GustSpeedMaxMPH,PrecipitationSumIn
2013-6-1,101,85,65,35,22,11,28,12,4,29.70,29.50,8,2,15,0.00
2013-6-2,100,85,69,38,29,24,22,14,8,29.53,29.37,20,4,30,0.00
2013-6-3,98,84,66,42,35,21,35,20,7,29.54,29.39,14,4,22,0.00
2013-6-4,100,84,66,44,38,22,40,22,7,29.62,29.50,17,4,25,0.00
2013-6-5,104,88,67,46,37,22,43,19,6,29.68,29.51,15,3,25,0.00
2013-6-6,106,90,68,44,34,22,35,16,6,29.61,29.47,14,3,20,0.00
2013-6-7,108,91,70,43,33,16,35,16,4,29.58,29.43,9,2,15,0.00
2013-6-8,111,94,70,43,29,18,27,12,4,29.52,29.40,13,3,21,0.00
2013-6-9,102,89,76,46,27,2,33,14,3,29.58,29.47,16,4,27,0.00
2013-6-10,88,79,63,39,25,9,25,14,7,29.63,29.52,23,10,35,0.00
2013-6-11,101,86,72,38,32,17,27,16,5,29.72,29.56,18,5,27,0.00
2013-6-12,98,86,72,42,32,22,24,15,7,29.68,29.55,21,8,29,0.00
2013-6-13,96,84,70,37,22,2,25,12,3,29.66,29.54,25,10,35,0.00
2013-6-14,97,80,56,31,19,2,25,12,3,29.71,29.51,16,4,24,0.00
2013-6-15,96,81,62,31,24,9,28,14,5,29.65,29.54,16,6,30,0.00
2013-6-16,98,80,59,29,24,16,28,14,6,29.74,29.60,16,3,23,0.00
2013-6-17,99,81,60,33,29,18,30,16,6,29.75,29.56,17,4,23,0.00
2013-6-18,97,80,61,36,28,10,29,17,4,29.61,29.48,24,6,33,0.00
2013-6-19,93,79,68,36,23,4,27,14,4,29.60,29.46,23,6,35,0.00
2013-6-20,92,77,58,28,23,15,28,14,6,29.65,29.49,23,5,29,0.00
2013-6-21,94,78,58,32,27,13,33,17,5,29.66,29.48,17,4,23,0.00
2013-6-22,96,82,62,32,28,21,29,16,7,29.65,29.48,16,3,23,0.00
2013-6-23,93,79,63,38,32,27,28,19,10,29.53,29.39,20,6,33,0.00
2013-6-24,86,77,65,48,40,32,39,27,20,29.57,29.40,30,10,38,0.00
2013-6-25,96,81,64,49,46,43,54,32,17,29.70,29.57,23,6,31,0.00
2013-6-26,104,87,69,51,46,37,50,27,11,29.74,29.60,17,5,23,0.00
2013-6-27,107,90,73,53,47,38,47,25,11,29.81,29.67,13,3,20,0.00
2013-6-28,110,94,73,51,44,27,45,21,6,29.75,29.57,15,3,24,0.00
2013-6-29,111,95,77,51,43,29,35,19,6,29.64,29.49,16,3,22,0.00
2013-6-30,113,97,75,49,38,25,34,15,5,29.59,29.44,16,3,25,0.00